星链-4048 (STARLINK-4048 )

导读 | 豆包AI

STARLINK-4048是美国太空探索技术公司星链星座中的卫星,于2022年6月17日发射入轨,属于低轨互联网通信卫星。它依托星链组网架构,为全球提供宽带互联网接入服务,尤其覆盖偏远地区,助力卫星通信普惠化,是美国搭建低轨卫星通信网络的重要组成单元,服役期间承担星座组网与通信传输任务。

Basic Information
目录编号:
52839
目录名称:
STARLINK-4048
国际标识:
2022-062K
轨道中心:
EARTH
卫星名称:
星链-4048
卫星全名:
星链-4048 (STARLINK-4048 )
卫星状态:
在轨 (已飞行1367 天)
发射日期:
2022-06-17 UTC
国别 :
美国 (US)
星等 :
--
Orbit Information
数据来源 国际轨道数据 AOE轨道数据
星历时间 2026-03-14T10:39:43+0800
1天前
查看轨道信息
2026-03-14T16:00:00+0800
19小时前
查看轨道信息
半长轴 6917.884km 6917.852km
偏心率 0.0001361 0.0001369
轨道倾角 53.220° 53.219°
近地点辐角 89.616° 81.961°
升交点赤经 14.273° 13.278°
平近点角 270.499° 46.989°
近地点 538.805km 538.767km
远地点 540.689km 540.663km
周期 95.438分钟 95.437分钟
每日圈数 15.088391 15.088495
Detailed Information
固有亮度:
5
最大亮度:
2.5
卫星平台:
Starlink v1.5
覆盖范围:
全球
运营商:
太空探索技术公司
运营商所在国:
美国
制造商(研发单位):
太空探索技术公司
制造商所在国:
美国
使用方式:
暂无
Satellite Introduction
星链(Starlink)计划是由太空探索技术公司(SpaceX)提出的一个巨型低轨卫星互联网星座项目,计划在2019年至2024年间在太空搭建由约1.2万颗卫星组成的“星链”网络,其中1584颗将部署在地球上空550千米处的近地轨道,并从2020年开始工作。该卫星仍在工作。
2D Orbit Map
3D Orbit Map
Orbit Altitude Analysis Chart
Orbit Inclination Analysis Chart
Orbit Comprehensive Analysis Chart
View Comprehensive Chart